Theta_e
285 285 285 284 283 283 283 283 283 284 283 284 284 284 284 284 284 284 285 285 285 285 285 285 285 285 285 285 286 286 286 286 286 285 285 286 286 286 286 285 285 285 285 285 285 285 285 286 286 286 285 285 286 286 285 285 285 285 285 285 285 284 284 284 283 282 280 281 283 282 283 284 283 284 283 282 282 283 284 282 283 283 281 281 282
284 284 284 284 283 283 284 284 284 284 283 284 283 283 283 283 284 284 284 284 284 284 284 285 285 285 285 285 284 284 285 286 286 286 286 286 285 287 286 285 285 285 284 284 284 285 285 285 285 285 284 285 286 286 286 285 284 285 284 284 284 284 284 284 283 283 281 281 280 281 282 284 282 283 283 281 281 282 281 281 281 280 280 279 279
284 284 282 282 281 281 281 281 283 283 283 283 282 283 283 283 283 282 282 283 284 284 284 284 284 284 284 284 284 284 284 285 286 285 285 285 285 285 286 285 285 285 284 284 284 284 284 284 284 284 285 284 285 286 286 285 285 285 285 285 285 285 284 284 283 282 281 279 280 281 281 282 282 282 282 282 281 281 280 280 280 280 280 279 279
282 282 283 282 281 281 280 281 280 280 280 281 282 282 282 282 282 282 282 282 283 283 284 284 284 284 284 284 284 284 284 284 285 285 285 284 284 285 285 285 285 285 285 285 284 284 284 284 284 283 283 284 285 284 284 284 284 284 285 285 285 285 284 284 284 285 281 280 280 281 281 281 281 281 282 281 280 279 280 279 279 279 279 280 279
280 280 280 280 280 280 280 280 280 279 279 279 279 280 281 281 281 280 280 280 281 281 282 282 282 282 283 283 284 284 284 284 284 284 284 284 284 284 284 284 284 284 284 285 286 285 284 284 284 283 283 283 284 284 284 283 284 284 285 285 285 285 284 284 284 284 281 281 280 280 281 281 281 280 281 280 279 278 278 278 279 279 278 279 280
279 279 279 279 279 279 279 279 279 279 280 280 279 280 281 280 280 280 280 280 280 280 280 281 281 281 281 281 282 283 284 284 284 284 284 284 284 284 284 284 284 284 284 284 284 284 285 285 285 284 284 284 284 285 284 284 284 284 284 284 284 284 284 284 284 283 282 281 280 279 279 280 279 279 281 281 279 278 277 278 278 278 278 278 279
279 278 278 278 278 278 278 279 279 279 279 280 279 279 280 280 280 280 280 279 279 279 280 279 280 280 280 281 281 282 282 283 284 284 284 284 284 284 285 285 285 285 285 285 284 284 285 285 285 285 285 285 285 285 285 284 285 284 284 284 284 284 284 284 284 283 283 281 279 280 280 280 280 279 280 281 280 279 278 277 276 278 278 279 278
278 278 278 278 278 278 279 279 279 280 280 280 279 278 278 279 279 280 280 280 279 279 279 280 280 279 280 280 280 281 281 282 282 283 283 283 284 284 284 284 284 285 285 285 285 285 285 285 285 285 285 285 285 285 285 285 285 284 285 284 284 284 284 284 283 283 283 282 280 279 279 279 278 277 279 279 278 277 278 278 277 277 277 279 279
278 277 277 278 278 278 278 278 278 279 279 279 279 279 279 278 279 279 280 280 281 280 279 279 279 279 279 279 280 280 281 281 282 282 282 282 283 283 284 284 284 284 284 285 285 285 285 285 285 285 285 286 287 287 287 287 286 285 285 284 283 284 284 284 284 283 283 283 281 279 278 278 278 277 277 277 277 278 279 279 278 279 278 278 278
278 277 277 278 278 278 278 278 278 278 278 278 278 278 278 278 278 278 279 279 279 279 279 279 278 278 278 278 279 280 281 282 284 286 287 285 283 283 283 283 284 284 284 284 284 285 285 285 286 286 286 286 286 287 288 288 288 287 286 285 284 284 284 284 284 284 283 282 282 279 278 278 278 278 278 278 279 279 278 278 277 278 278 277 278
278 277 277 278 278 278 278 278 278 278 278 278 278 278 278 278 277 277 278 278 278 278 278 278 277 277 277 277 278 279 280 281 285 287 288 288 286 284 283 283 283 283 283 283 283 284 284 285 285 285 286 286 286 287 288 288 289 289 289 288 287 285 284 284 284 284 283 283 283 282 279 279 279 279 278 279 279 279 278 278 278 278 276 275 274
277 277 277 278 278 278 278 278 278 278 278 277 278 278 278 277 277 277 277 277 277 278 277 277 277 277 277 277 277 277 279 283 285 286 286 287 287 284 283 283 283 283 283 283 284 284 284 284 285 285 285 285 285 285 286 287 288 288 289 289 289 289 289 286 284 284 284 283 283 283 281 280 280 279 278 278 277 278 278 279 278 278 277 276 277
278 278 278 278 278 278 278 277 277 277 277 277 277 278 277 277 276 276 276 276 277 277 277 277 276 276 276 275 275 277 277 282 284 285 285 286 286 286 283 282 282 282 283 283 283 283 284 284 284 285 285 286 286 285 285 284 286 287 288 288 288 289 290 290 289 286 285 284 283 283 283 282 280 279 279 279 280 278 279 278 278 278 278 278 278
278 278 278 278 278 278 278 277 277 277 277 277 277 277 276 276 276 276 275 275 275 276 276 276 276 275 275 275 275 276 276 280 282 284 284 285 286 286 283 282 282 282 282 282 283 283 283 283 283 283 284 285 285 285 285 284 284 284 284 285 285 286 288 289 289 288 287 285 285 283 284 284 282 281 280 281 279 278 278 278 279 278 278 279 280
277 277 277 277 277 277 277 277 277 277 277 277 276 276 276 276 275 275 275 274 274 274 274 274 274 274 274 274 274 274 275 279 281 282 283 285 286 286 283 282 282 282 282 282 282 283 283 283 283 283 284 284 284 285 284 284 284 284 283 283 284 284 285 285 286 287 286 286 285 285 285 285 284 283 281 281 280 280 281 280 280 280 280 278 276
275 276 276 276 276 276 276 276 276 275 275 275 275 275 275 275 275 275 274 274 274 274 274 274 273 273 273 273 273 273 274 279 280 281 282 283 284 282 282 281 281 281 281 281 281 282 283 283 283 283 284 284 285 287 287 285 284 283 283 283 283 284 284 286 287 288 287 286 286 285 285 285 287 284 282 282 281 281 281 280 279 278 276 275 274
274 274 274 275 275 275 275 274 273 274 274 274 273 273 273 273 273 274 273 273 272 272 272 272 273 272 272 272 271 272 272 276 278 279 280 282 282 280 280 280 280 280 280 280 280 281 282 282 283 283 283 283 286 288 288 288 284 283 282 282 282 283 283 284 287 288 289 289 289 289 289 289 290 291 288 287 283 282 280 278 277 278 276 274 273
272 272 272 273 273 272 272 272 272 272 272 271 271 271 271 272 272 272 271 271 271 271 271 271 271 271 271 271 271 271 271 274 277 278 279 280 280 277 278 278 278 279 279 279 280 280 281 283 283 282 282 283 286 288 288 287 284 284 283 282 281 281 282 283 284 285 287 288 289 289 289 289 289 290 290 289 287 285 280 278 278 278 276 276 274
270 270 270 271 271 270 270 270 270 270 269 269 269 268 268 268 269 270 269 270 269 270 270 270 270 270 270 270 272 271 270 272 276 277 278 278 277 276 276 276 276 277 278 278 279 279 280 282 283 284 283 284 287 288 288 287 284 283 283 282 281 281 282 283 282 282 282 283 284 285 285 286 286 285 286 288 287 286 282 281 280 278 276 277 275
269 269 269 268 268 267 268 268 268 267 265 265 265 265 266 266 267 267 267 268 267 268 268 268 268 268 269 269 269 269 269 269 271 275 276 277 278 275 274 273 273 274 276 277 278 278 279 280 282 285 287 287 288 288 288 288 285 284 283 282 281 281 283 282 281 282 282 282 282 283 283 283 283 283 283 284 285 283 282 281 281 280 278 278 276
267 267 266 265 265 265 265 265 264 263 263 263 264 264 264 264 264 264 264 265 265 265 266 266 266 266 267 268 268 268 268 268 269 274 276 276 277 276 273 273 274 275 275 276 277 277 278 279 280 283 285 286 287 288 288 289 288 285 284 282 282 283 285 281 281 283 281 281 281 282 281 282 282 282 282 282 283 283 282 282 281 280 280 279 277
265 264 263 263 262 262 262 262 262 262 262 262 261 261 262 262 262 262 263 262 262 262 263 263 264 264 265 266 266 266 268 270 268 272 274 275 276 277 273 272 274 273 274 275 276 277 278 279 279 281 284 285 286 287 288 289 289 286 284 287 287 287 284 282 281 281 281 280 280 280 280 280 280 280 281 281 282 282 281 280 280 280 280 281 279
263 262 262 261 261 261 261 260 260 261 260 261 260 260 260 260 261 261 261 261 261 261 261 262 262 262 263 264 265 265 266 267 271 269 273 274 275 276 277 276 278 276 275 274 275 277 278 279 280 282 284 285 286 287 287 288 288 287 288 288 288 287 286 283 281 280 280 280 279 279 279 279 279 279 280 280 281 281 280 280 280 280 279 278 278
261 261 260 260 260 260 260 260 260 260 260 260 259 259 259 259 260 260 260 260 260 260 261 261 261 261 261 262 263 265 265 266 269 271 270 273 274 275 276 277 278 276 276 275 276 277 278 278 279 283 284 285 285 286 287 287 286 287 288 288 288 287 285 283 281 280 279 279 278 278 278 278 279 279 279 280 280 280 279 277 277 278 276 275 275
260 259 259 259 259 259 259 259 259 259 259 259 258 259 259 259 259 259 260 260 260 259 260 260 260 260 261 261 262 263 264 265 265 268 271 272 273 274 275 276 277 278 275 276 278 278 281 282 283 283 284 284 285 286 286 286 287 287 287 288 286 285 284 283 282 280 278 277 278 278 278 278 279 279 280 280 279 278 275 276 276 275 274 274 274
259 258 258 258 258 259 258 258 258 259 259 259 259 259 259 259 259 259 259 259 259 259 259 260 260 260 260 261 261 262 264 264 265 266 267 268 269 271 272 274 275 277 277 276 279 281 282 283 283 283 283 284 283 282 282 283 285 286 286 286 285 284 284 283 281 280 278 278 278 277 278 278 278 278 278 278 276 275 274 273 272 271 271 270 270
258 258 258 258 258 258 258 258 258 258 259 259 259 259 259 259 259 259 259 258 258 259 259 259 259 259 259 259 260 261 261 262 263 263 264 265 265 266 267 269 272 274 274 276 278 279 280 282 282 283 282 283 284 284 284 284 283 283 283 284 285 284 284 283 281 280 279 278 278 278 278 278 278 275 274 275 274 274 274 273 272 271 270 270 269
258 257 257 257 258 258 257 259 258 258 258 258 258 258 259 259 258 258 258 258 258 258 258 258 258 259 258 259 259 259 260 260 261 262 263 263 264 266 267 269 269 271 273 275 277 278 278 281 281 281 281 281 281 281 282 282 281 281 282 283 283 283 283 283 283 281 280 279 278 278 277 276 274 273 274 274 273 273 273 272 271 270 270 269 267
258 257 257 257 257 258 258 257 257 257 257 258 258 258 258 258 258 259 260 260 260 259 259 259 260 260 260 260 260 260 260 261 262 267 266 269 267 267 267 268 269 270 273 276 275 276 277 276 276 276 277 277 278 279 280 280 281 281 281 281 282 282 282 282 280 280 279 279 277 277 276 275 274 273 273 273 272 272 272 271 271 269 269 270 268
257 257 257 257 257 257 257 257 257 257 257 257 257 258 261 266 264 262 261 265 269 270 269 264 265 265 264 265 265 264 263 265 270 271 271 272 272 273 274 274 275 273 275 277 275 273 274 275 275 275 276 276 277 278 278 279 279 280 280 281 281 281 281 281 280 280 279 278 277 276 275 274 273 272 272 272 271 270 271 271 269 269 268 268 267
257 257 257 257 257 257 257 257 257 257 257 257 257 257 257 259 265 267 267 267 268 269 270 271 271 271 268 265 267 271 272 272 272 272 272 272 273 273 274 274 274 275 276 273 272 272 273 274 275 276 276 277 277 277 278 278 278 279 279 279 280 280 280 280 280 279 278 277 277 276 274 274 273 272 271 271 269 269 269 269 269 268 268 268 267
257 257 257 257 257 257 257 257 257 257 257 257 257 257 257 256 258 263 267 267 268 269 269 270 270 270 271 269 267 266 269 271 272 272 272 272 273 273 273 274 274 275 275 276 271 271 272 272 274 276 277 277 277 278 278 278 278 278 278 278 278 279 279 279 279 278 277 277 276 274 273 273 272 272 271 269 268 268 268 267 267 267 267 268 267
257 256 256 257 257 257 257 257 257 257 256 257 257 257 257 257 256 257 260 265 267 268 268 269 270 270 270 270 271 270 270 270 271 272 272 272 273 273 273 274 274 275 275 271 270 270 271 271 273 275 276 276 277 277 278 278 278 278 278 278 278 278 279 279 279 277 277 276 275 273 273 272 271 271 270 268 268 267 267 267 267 267 267 266 266
257 257 256 257 257 257 257 257 257 257 257 257 257 257 257 258 257 257 257 258 259 262 266 267 268 269 269 269 270 270 270 270 271 272 272 273 273 273 273 271 275 276 274 270 270 269 271 271 272 274 275 277 277 277 277 277 278 278 278 278 278 278 278 277 276 276 276 275 273 272 272 271 271 270 269 268 268 267 267 266 267 266 266 266 266
257 257 258 258 257 257 257 257 257 257 258 257 258 258 258 258 258 258 257 257 257 257 258 259 264 268 265 267 269 270 271 271 272 272 273 273 273 274 274 270 269 270 270 270 270 270 270 271 271 273 274 276 277 277 277 277 277 277 277 277 277 276 275 275 275 275 274 273 272 271 271 271 270 270 269 267 267 266 266 266 266 266 266 266 266
257 257 257 257 257 257 257 257 258 258 258 258 258 258 259 259 258 258 259 259 258 258 259 260 260 265 268 269 270 270 270 271 271 272 272 273 274 274 269 269 269 269 269 270 271 271 272 272 272 272 274 276 277 277 277 277 277 277 277 277 275 275 274 274 274 273 273 272 271 271 271 270 270 269 268 268 267 266 266 266 265 266 266 266 266
257 256 257 257 257 257 257 258 258 258 260 260 259 259 259 259 259 259 259 259 259 259 259 260 260 260 264 263 264 268 270 270 271 272 272 273 274 272 269 270 270 271 270 270 271 272 272 272 273 274 275 276 277 277 277 277 277 277 277 276 275 274 273 273 273 272 272 271 271 270 270 269 269 268 268 266 266 266 266 265 265 266 266 266 266
256 256 256 257 257 258 258 258 259 260 260 259 260 260 259 259 260 260 259 259 260 260 259 260 261 259 259 260 265 264 265 269 270 270 270 270 269 268 269 270 272 273 273 273 273 273 273 273 274 275 277 277 276 277 277 277 277 276 275 274 273 273 274 273 273 272 271 271 270 269 269 268 268 267 267 266 266 265 265 265 265 265 265 266 265
256 257 258 259 260 259 259 259 259 259 259 259 259 259 259 260 260 260 260 260 260 260 260 260 260 260 260 262 262 264 265 264 264 265 266 267 268 269 269 270 272 273 273 273 275 275 275 275 276 277 277 276 276 277 277 276 275 274 273 272 271 272 272 271 271 270 270 269 268 268 268 268 267 267 267 266 265 265 265 265 265 265 264 264 264
256 256 257 258 258 258 259 259 259 259 259 259 259 260 260 260 260 260 261 261 260 261 261 260 261 261 262 263 263 264 265 266 266 267 267 267 268 269 270 271 271 270 271 272 273 275 276 277 277 276 276 276 276 276 275 275 274 273 272 271 271 271 271 270 269 269 268 268 267 267 267 267 267 267 266 266 266 265 265 265 265 265 265 264 265
255 256 257 258 258 258 258 258 258 258 259 259 259 260 260 260 261 261 261 261 261 261 261 261 262 262 263 265 269 270 266 265 266 266 267 268 268 269 268 268 268 269 270 271 272 272 273 273 273 273 272 273 273 273 273 273 272 271 271 270 270 269 269 268 268 268 267 267 266 266 266 266 266 266 265 265 267 266 265 265 265 265 265 264 264
255 256 256 256 257 257 257 257 258 259 259 259 259 259 260 260 261 261 261 261 261 261 262 262 262 263 265 267 268 268 264 263 264 264 264 264 264 264 265 265 266 268 269 269 270 270 271 269 269 269 270 270 271 271 272 271 271 270 269 269 268 268 267 267 267 267 266 266 266 266 265 265 265 266 266 267 265 265 264 264 264 264 264 264 264
256 256 256 256 256 256 257 257 258 258 258 258 259 260 260 260 260 260 260 260 261 261 261 261 261 262 262 265 264 264 261 261 262 262 261 262 262 262 262 263 264 265 266 267 268 270 271 271 270 270 270 270 270 271 271 270 270 269 269 268 267 267 266 266 266 265 265 265 265 265 265 266 265 265 265 265 264 264 264 264 264 264 264 264 264
255 255 256 256 256 256 257 257 257 258 258 259 259 259 259 259 259 259 259 259 260 260 260 260 260 260 260 261 261 260 259 259 259 259 260 260 260 260 260 261 262 262 263 264 264 266 268 267 267 267 267 267 268 268 269 269 269 269 268 267 266 266 265 265 265 265 265 264 264 264 265 265 265 265 264 264 264 264 263 263 263 263 263 263 264
254 254 255 255 255 255 256 256 257 257 258 257 257 257 258 258 258 258 259 259 259 259 259 259 259 259 259 258 258 258 258 258 259 258 258 258 258 258 259 260 260 261 261 262 263 264 264 264 265 265 265 266 267 267 267 267 267 267 267 267 266 265 265 265 265 265 265 264 264 264 264 264 264 264 264 264 264 264 263 263 263 263 263 263 263
254 254 254 255 255 255 255 255 256 256 256 256 256 256 256 257 257 258 258 258 258 258 258 258 258 258 258 258 258 257 257 257 257 257 257 257 257 257 258 258 259 259 260 260 262 262 263 263 263 264 264 264 264 265 266 266 266 266 266 266 266 266 266 266 265 265 265 265 264 264 264 264 264 264 264 264 264 263 263 263 263 263 263 263 263
253 253 254 254 254 255 255 256 255 255 255 255 256 256 256 256 256 257 258 258 258 258 258 257 257 257 257 257 257 256 257 256 256 256 256 256 256 257 257 258 258 258 258 259 259 260 261 261 261 262 262 262 262 262 262 263 263 264 264 264 265 265 265 265 265 265 265 265 265 264 264 264 263 263 263 263 263 263 263 263 263 263 263 263 263
253 253 253 254 254 254 254 254 254 256 255 255 255 256 256 256 256 256 256 256 257 257 257 257 257 257 257 257 257 257 257 257 257 257 257 257 257 257 257 257 257 257 258 258 258 259 259 259 259 259 259 260 260 260 260 261 261 262 262 263 263 264 264 264 264 264 264 265 265 264 264 263 263 263 263 263 263 263 262 262 262 263 263 263 263
253 253 253 253 254 254 253 254 254 254 254 254 254 254 255 255 255 255 256 256 256 257 256 256 256 257 257 257 257 257 257 257 257 257 257 257 257 257 258 258 258 257 257 257 258 258 258 258 258 258 259 259 259 259 260 260 261 262 263 264 265 265 264 264 264 264 264 264 264 264 264 263 263 262 263 262 262 262 262 262 262 262 262 263 262
252 253 253 253 253 253 253 253 253 253 254 254 254 254 254 254 254 254 255 255 255 256 256 256 256 256 256 257 257 257 257 257 256 256 257 257 257 257 257 257 257 257 257 257 257 257 257 258 258 259 259 259 260 260 260 260 261 262 263 264 265 265 264 264 264 264 264 263 263 263 263 262 262 262 262 262 262 262 262 262 262 262 262 262 262
252 252 252 252 252 252 252 252 252 252 252 253 253 253 253 253 253 254 254 254 254 255 255 255 256 256 256 256 257 256 256 256 256 256 256 256 256 256 256 256 256 256 256 256 256 257 257 258 259 259 260 260 261 261 261 261 262 262 263 263 263 263 263 263 262 263 263 263 263 263 262 262 261 261 261 261 261 261 262 262 262 262 262 262 262
Wind_Speed
6 5 5 5 5 5 5 5 6 6 7 7 8 8 9 9 9 8 8 9 9 10 8 7 6 6 6 7 7 7 6 6 5 5 4 5 5 5 6 6 7 8 7 8 7 7 8 10 10 10 6 8 10 9 8 8 7 7 7 7 7 6 7 8 9 7 1 1 6 8 9 11 9 10 11 8 8 10 10 9 10 9 9 8 8
5 6 5 4 5 3 3 3 3 3 4 4 5 5 6 6 7 9 10 10 8 9 8 8 8 9 8 7 6 6 6 7 7 5 6 6 6 5 6 7 8 8 7 8 7 7 7 10 10 8 7 10 11 11 10 9 8 9 8 8 8 8 7 7 8 7 8 1 4 4 7 10 10 9 14 12 11 9 11 10 8 8 9 8 8
4 4 4 4 5 4 3 3 3 4 4 4 4 4 4 4 4 4 5 6 6 7 9 9 9 8 8 8 8 8 6 6 5 5 5 6 7 6 6 7 8 8 8 9 8 7 8 9 9 7 6 9 11 11 9 10 9 10 12 9 10 10 8 8 7 8 8 7 5 8 9 10 12 12 12 10 9 10 11 10 10 8 7 8 8
4 4 4 3 4 4 4 4 3 3 3 3 3 4 4 4 4 4 5 6 7 7 6 6 7 8 9 10 9 9 9 8 7 6 6 6 6 7 7 7 7 8 8 9 8 8 9 10 9 7 7 11 11 10 8 8 9 9 10 10 11 12 9 8 9 10 7 9 7 10 9 11 7 5 8 7 9 10 10 7 5 7 6 7 8
4 4 5 4 4 4 3 3 4 4 4 3 3 4 4 4 3 3 4 4 5 7 8 7 6 6 7 8 9 9 9 9 9 9 7 6 7 7 7 7 8 8 9 9 9 9 10 10 9 6 8 11 11 9 8 9 10 10 11 10 10 10 7 8 10 8 7 11 8 6 7 8 6 7 11 12 9 8 6 9 9 9 7 6 5
4 4 5 5 6 6 5 5 5 5 5 5 5 5 5 5 5 5 5 6 5 5 6 7 6 8 7 7 7 8 8 8 8 8 9 8 7 7 7 7 8 8 8 8 8 8 9 10 9 8 10 12 12 9 9 11 10 11 12 11 10 8 9 10 9 9 9 8 10 8 6 10 7 7 12 12 12 10 8 7 5 7 8 7 7
3 3 4 4 5 5 5 5 6 6 6 5 5 5 5 6 6 6 5 4 5 6 6 7 6 6 8 8 8 9 8 7 8 8 8 8 8 8 8 8 8 8 7 8 8 8 9 9 9 9 11 12 12 11 10 10 10 12 12 11 10 9 10 11 10 10 11 9 7 9 11 9 10 11 10 11 10 11 13 11 9 7 8 9 8
5 5 5 5 5 6 6 6 7 8 8 7 6 5 5 5 5 6 6 6 5 5 6 7 7 6 7 7 8 8 8 8 8 8 8 8 8 8 8 8 8 8 8 9 9 9 10 10 10 10 11 11 11 10 10 11 10 11 11 10 10 11 12 10 10 10 11 11 9 10 9 11 8 2 5 9 9 7 8 11 14 13 12 10 11
3 4 5 5 6 5 5 5 5 6 7 7 9 9 8 7 6 6 6 7 7 7 6 6 8 8 7 8 8 7 8 8 7 8 9 9 8 8 9 9 9 9 9 9 9 9 9 9 10 10 11 14 17 15 13 12 10 11 11 9 10 10 11 10 10 10 10 11 10 7 9 10 11 11 12 14 17 19 14 12 11 9 9 9 8
2 4 5 6 6 6 6 6 6 7 7 8 8 8 9 9 9 8 8 7 7 7 7 8 7 8 9 9 8 8 8 7 10 16 15 10 9 9 9 9 9 10 10 10 10 10 10 10 10 14 15 17 17 18 19 20 20 16 11 8 9 10 11 12 12 12 12 12 13 10 11 12 14 15 16 17 13 8 11 13 11 8 7 8 4
3 4 5 5 6 6 6 7 7 8 9 8 8 8 9 9 9 9 10 9 9 8 8 8 8 8 9 10 10 9 9 9 14 15 17 19 13 9 9 10 9 10 10 11 11 11 10 10 10 12 14 15 15 18 18 20 21 22 22 18 14 12 11 13 13 13 13 13 12 11 13 16 15 14 15 13 12 15 15 14 12 10 13 13 13
4 5 6 6 7 7 7 8 8 10 8 9 9 9 9 9 9 9 10 11 10 9 10 10 9 9 9 9 10 11 11 11 19 19 20 21 18 12 9 9 10 10 10 11 11 11 11 11 10 8 9 11 11 11 14 19 21 22 22 21 22 23 21 16 14 13 13 14 14 15 13 16 15 13 12 11 13 12 11 13 14 15 14 13 10
6 7 8 8 9 9 8 8 9 9 9 9 9 9 10 10 10 10 11 9 9 11 13 13 12 11 10 11 12 11 11 14 20 21 22 22 22 18 10 10 11 11 11 11 11 11 10 10 10 10 9 15 13 12 12 11 14 19 20 22 23 25 25 26 23 17 12 14 14 16 17 16 13 13 15 15 13 15 14 13 14 13 13 15 14
9 10 10 10 10 10 10 9 10 10 10 9 9 9 10 11 10 9 8 8 10 11 12 13 13 14 13 12 12 13 13 15 22 22 22 24 24 20 11 12 12 11 12 12 12 12 12 11 11 11 10 10 10 11 11 12 11 11 12 13 14 19 23 26 26 26 21 16 15 18 17 14 14 12 12 13 16 17 15 15 13 13 14 16 14
9 10 11 11 10 9 10 9 11 11 11 10 10 11 10 10 10 9 8 9 10 11 11 13 13 14 14 14 14 15 14 22 23 24 24 24 24 20 12 12 11 11 12 12 13 13 13 12 12 13 12 11 10 12 11 11 10 11 11 12 13 13 14 15 17 17 16 15 16 18 16 13 12 11 13 16 19 17 17 19 19 18 13 3 7
9 9 10 10 10 10 10 11 11 11 12 12 12 12 11 11 11 10 9 9 10 10 12 12 14 15 15 14 14 17 17 27 27 25 25 25 26 15 12 12 12 12 13 13 13 12 12 13 12 13 13 13 14 19 17 12 10 12 14 13 12 12 13 15 19 17 16 15 16 17 14 12 12 10 12 15 14 11 6 3 3 4 6 7 8
9 10 10 11 11 11 11 12 13 14 13 13 12 12 12 13 12 10 11 12 13 13 14 13 13 14 15 16 16 17 17 23 29 29 26 27 20 12 12 12 13 14 14 14 13 13 13 13 13 13 13 13 14 18 19 19 13 14 14 14 13 12 14 13 18 21 22 22 24 24 22 20 20 14 17 22 17 13 10 10 13 12 11 11 8
10 10 11 10 11 11 11 12 13 14 13 13 13 13 13 12 12 11 12 14 15 15 13 14 14 14 15 17 16 16 18 23 31 31 32 31 24 16 14 14 14 14 14 15 13 13 14 21 18 15 14 14 15 19 20 18 14 14 14 14 15 14 15 13 9 10 17 22 23 24 24 23 20 19 18 21 23 18 17 19 15 12 13 14 14
10 11 12 11 10 10 11 12 13 13 13 13 12 14 15 14 14 14 14 14 15 15 15 14 15 14 14 16 20 21 19 23 31 32 34 32 25 15 13 13 15 15 15 16 14 13 13 15 22 20 17 16 20 21 22 18 14 14 14 14 15 16 16 12 9 9 10 11 14 15 15 17 15 13 13 22 25 21 19 17 12 16 17 15 10
11 11 11 11 11 11 11 12 12 12 14 15 15 15 14 14 14 14 14 13 15 15 15 15 17 17 16 16 17 18 19 20 23 34 33 34 33 21 15 16 18 19 18 17 16 14 13 13 15 20 25 25 24 24 23 23 16 14 13 13 14 18 14 10 9 12 13 13 13 13 14 12 11 11 11 13 17 20 18 15 14 16 16 14 13
11 11 11 11 11 11 11 10 13 14 12 13 14 15 13 13 15 15 16 15 15 16 17 17 17 18 17 17 17 19 17 19 22 32 33 35 37 31 18 18 18 18 17 18 16 16 15 14 13 16 23 25 25 25 24 25 23 16 15 14 16 18 14 6 12 19 12 12 12 13 12 11 11 12 12 13 13 14 16 16 15 16 15 14 14
10 10 11 11 11 11 11 11 11 12 13 13 14 15 13 13 14 14 13 14 16 18 17 16 16 18 17 17 17 19 19 27 22 30 36 36 37 39 25 21 22 19 20 19 18 17 17 15 14 14 20 23 24 24 26 25 27 17 16 19 22 20 14 10 9 9 10 11 11 11 11 11 12 13 13 13 13 13 14 13 12 13 11 11 14
11 11 12 13 12 12 12 12 13 11 12 12 13 15 14 13 14 13 14 15 15 17 16 15 15 16 15 15 15 16 16 17 28 26 32 35 36 36 38 31 34 25 20 20 20 19 17 17 15 19 21 22 23 25 25 26 22 17 22 23 23 22 17 11 9 10 10 11 11 12 12 12 12 13 13 13 12 11 11 11 10 10 9 6 4
11 12 12 13 13 13 12 12 12 11 12 13 13 13 14 13 13 11 12 13 13 14 13 12 14 15 16 16 13 12 12 13 20 29 27 33 34 36 36 36 36 24 21 19 19 19 19 18 16 19 23 24 25 25 25 24 17 22 24 26 24 21 14 11 11 11 11 11 12 13 14 13 12 12 12 11 10 8 7 4 4 4 6 6 6
12 13 14 13 13 13 13 12 12 12 11 11 13 12 13 12 12 11 11 12 12 13 13 11 13 14 14 15 14 12 11 12 13 19 29 31 34 34 35 36 35 35 25 21 21 20 21 26 25 24 23 24 27 26 23 24 27 25 25 24 22 13 12 11 12 11 12 12 13 13 12 12 12 11 9 8 7 8 8 6 6 5 5 6 6
13 14 13 13 13 14 15 13 12 12 13 11 11 11 12 12 11 12 11 12 12 13 13 13 13 13 14 14 14 13 12 11 11 13 17 22 25 32 36 36 35 34 32 26 33 36 35 33 36 32 25 22 18 15 14 13 21 25 24 21 13 12 11 11 11 12 13 13 13 13 12 9 8 7 8 8 9 9 9 9 9 7 8 9 9
13 13 14 13 13 12 14 12 13 12 11 11 10 10 11 11 12 12 12 13 13 13 14 13 13 14 15 14 13 14 13 13 14 13 13 14 15 19 22 21 28 29 21 17 20 21 25 27 19 22 23 24 22 16 15 15 15 14 13 13 12 12 12 11 12 13 13 12 11 11 9 7 6 8 9 10 10 9 10 11 11 10 9 8 10
13 14 14 13 12 12 13 14 15 12 11 11 11 11 11 11 12 12 12 13 13 14 14 14 15 15 15 14 14 14 13 12 11 12 13 13 14 14 15 17 15 13 15 15 15 15 14 15 21 17 14 14 14 13 13 12 12 11 11 11 11 12 14 15 13 11 11 11 10 8 7 8 10 10 9 10 10 10 10 10 11 10 9 10 9
12 13 13 12 13 12 11 12 12 12 13 12 11 11 12 12 13 14 14 12 13 14 14 15 15 15 15 15 16 17 15 14 13 16 20 23 21 17 15 15 14 15 19 29 23 16 11 11 11 12 12 12 12 13 12 12 12 12 13 11 11 11 11 11 12 12 12 10 10 11 10 9 8 9 10 10 10 10 9 9 8 11 9 9 11
12 12 12 12 12 11 11 11 12 12 12 13 13 12 14 23 20 17 15 21 30 32 27 20 19 17 17 15 13 16 15 15 25 32 32 33 33 35 33 33 31 27 30 36 27 18 16 15 13 12 12 11 12 12 13 12 12 12 11 14 13 11 11 11 11 11 10 11 11 11 10 10 10 10 10 10 9 8 9 11 10 10 11 11 10
12 12 12 11 12 13 12 12 12 11 12 12 12 13 13 12 21 29 28 28 29 31 31 34 35 33 25 20 20 33 35 37 36 34 34 33 34 33 32 31 34 34 34 25 19 15 14 15 13 11 11 11 10 11 11 11 11 11 10 10 11 11 12 10 10 9 10 10 10 10 11 11 11 11 11 10 10 9 8 7 8 10 11 11 11
13 13 12 12 13 13 11 12 12 12 12 12 12 13 13 14 13 18 25 27 28 30 31 32 33 32 33 30 25 18 26 31 33 32 32 32 31 31 30 31 32 33 32 33 21 17 14 14 13 14 11 11 10 10 10 10 10 10 9 9 9 10 11 11 10 10 10 10 10 10 11 11 11 11 11 10 11 10 10 10 10 10 9 8 10
14 13 13 13 12 13 12 11 11 11 12 13 13 12 13 13 15 15 14 21 27 29 30 31 32 31 31 32 33 29 29 30 33 32 31 31 31 29 30 32 31 30 32 22 16 14 13 14 13 13 12 11 10 9 8 9 9 8 8 9 9 9 10 9 9 9 9 10 9 10 10 11 11 11 11 12 12 12 11 11 11 11 11 11 9
13 12 12 13 13 12 11 11 11 11 11 12 12 13 13 13 14 15 17 15 14 17 22 28 30 30 31 32 31 31 31 32 32 32 31 30 30 30 29 23 28 30 25 17 14 12 10 11 13 12 12 10 9 9 8 8 8 8 8 9 9 8 8 7 8 9 9 9 10 10 11 11 12 12 11 11 11 11 12 12 12 12 11 11 11
12 14 20 16 11 11 11 11 11 11 11 12 12 12 13 13 13 14 14 15 16 16 15 16 21 27 23 23 26 30 30 30 30 28 29 29 29 30 30 17 14 12 13 12 13 12 12 12 12 11 12 11 8 8 8 8 8 8 8 8 7 6 7 8 9 9 9 9 9 10 11 13 13 13 14 14 12 11 11 11 11 12 12 10 10
12 11 11 12 11 10 10 11 11 11 12 12 12 13 13 13 13 13 13 14 14 15 15 14 14 19 31 29 29 27 28 28 28 29 28 29 29 29 15 12 13 12 12 12 11 11 12 11 11 11 12 12 9 7 7 8 8 8 8 8 7 8 8 8 8 9 9 10 11 12 11 11 12 12 11 12 15 15 13 12 11 10 10 10 10
11 11 10 10 10 10 11 11 11 12 13 13 12 12 12 12 12 12 12 13 14 13 14 14 13 14 18 15 16 22 29 28 27 27 27 26 27 18 11 13 13 12 12 11 12 13 12 12 12 12 12 11 8 6 6 8 9 9 9 8 8 9 9 9 10 9 10 10 10 11 12 11 11 11 12 12 10 10 10 11 11 11 11 12 11
11 11 10 10 10 11 11 11 12 16 13 11 11 11 12 12 12 12 13 13 14 14 14 14 13 13 13 15 19 14 16 24 27 22 18 16 12 10 10 11 12 11 8 9 12 11 11 11 11 12 11 8 8 7 8 8 8 7 7 7 8 8 11 11 12 12 11 10 10 9 9 9 9 10 10 11 12 11 11 11 11 10 10 11 10
10 15 19 20 15 11 10 11 11 11 11 12 11 12 12 12 12 12 12 12 12 13 13 13 12 12 13 12 12 15 17 14 12 12 14 12 10 9 10 11 11 11 12 11 8 8 10 11 10 9 10 10 8 7 7 7 7 7 7 7 7 7 9 8 8 8 8 8 8 8 9 9 9 10 10 10 11 11 11 11 11 11 12 11 9
11 11 12 18 12 12 10 11 11 11 11 11 12 11 12 12 12 13 13 12 13 12 12 12 13 12 13 12 12 12 13 13 12 12 11 12 12 12 10 9 10 11 11 11 12 12 7 10 11 10 10 8 6 6 6 7 7 7 8 9 9 9 9 9 9 10 9 9 9 9 9 10 9 9 8 8 9 10 11 11 11 10 10 10 9
10 11 11 12 13 12 10 11 10 10 10 11 11 11 12 13 12 12 12 13 12 12 12 12 12 12 12 17 27 25 14 11 12 12 12 11 11 11 11 11 10 11 11 11 11 11 8 2 6 5 4 4 5 6 6 6 7 7 8 7 7 8 7 7 8 8 8 8 9 9 9 9 9 10 10 8 10 10 9 9 9 9 9 9 9
10 10 10 9 11 9 9 10 10 12 11 12 11 11 12 12 12 11 12 12 12 12 12 12 12 12 17 29 26 28 15 10 11 11 11 11 10 10 10 10 10 10 10 9 9 9 9 8 5 4 2 2 4 4 5 5 6 6 6 7 7 8 8 8 8 8 9 9 9 9 9 9 9 9 10 11 10 9 10 10 10 10 10 9 9
10 9 9 9 9 9 9 10 10 10 10 11 10 11 13 12 11 11 11 12 11 11 11 12 13 13 14 21 22 23 11 11 10 11 10 10 10 11 10 10 10 10 9 9 9 8 8 7 7 7 7 6 5 3 2 4 6 6 6 7 7 8 8 8 8 8 8 8 8 9 10 10 10 9 10 10 10 10 9 10 10 9 10 10 10
9 9 9 8 9 8 8 8 9 9 9 12 13 12 12 11 10 10 11 11 11 11 11 11 12 13 13 14 15 13 11 11 10 10 11 10 10 10 10 10 10 10 10 9 9 9 8 7 6 7 8 8 7 7 6 5 3 4 7 8 7 8 8 9 9 10 10 10 10 10 10 9 9 10 10 10 11 11 10 10 10 9 9 9 9
8 8 8 8 8 7 8 7 7 9 11 10 9 9 10 9 10 10 10 10 12 11 10 11 11 12 12 11 11 11 11 10 11 11 10 11 10 10 10 10 10 10 9 9 9 9 8 8 8 8 9 8 8 8 7 7 6 5 4 5 7 8 7 7 7 7 9 11 10 10 10 10 10 10 10 10 10 11 10 10 10 10 10 9 9
8 7 8 8 8 9 8 8 9 8 8 8 9 9 9 9 9 10 11 11 11 11 11 11 10 10 10 10 10 11 10 10 10 10 10 10 10 10 9 9 10 9 9 9 9 9 9 9 8 8 7 7 8 7 7 8 7 7 7 6 6 5 6 6 7 8 9 10 10 10 10 10 10 10 11 10 9 9 9 9 9 9 9 10 9
8 7 7 7 7 8 8 9 7 8 8 9 8 9 9 9 9 9 10 11 11 10 10 10 10 10 9 9 10 10 10 9 9 9 10 9 10 9 9 9 9 9 9 9 9 9 10 10 8 8 8 8 8 9 8 8 7 7 7 6 6 7 6 6 6 7 8 8 9 10 10 11 11 10 11 10 9 10 10 9 9 10 9 9 9
7 7 6 7 6 6 7 7 8 9 8 8 8 8 9 9 9 9 9 10 10 10 10 9 9 9 9 9 9 9 9 9 8 8 8 9 9 9 9 10 9 9 9 9 10 10 9 9 8 8 8 8 8 8 8 8 7 7 7 6 6 7 9 9 7 7 6 7 7 9 10 10 10 10 10 10 10 10 10 9 8 7 8 8 7
6 6 6 6 6 6 7 8 8 8 8 8 9 9 9 8 8 8 8 9 9 9 9 9 9 9 9 9 9 9 9 9 9 10 9 9 10 9 10 10 10 10 9 9 10 11 10 10 9 8 9 8 8 8 8 8 8 7 7 6 10 16 15 14 9 8 10 8 8 8 8 9 10 10 9 10 10 9 9 8 8 8 7 7 7
6 6 6 6 6 6 7 6 6 7 7 7 7 8 8 8 8 9 9 9 8 9 9 9 9 9 9 9 10 10 10 10 10 10 10 9 10 10 10 10 11 10 10 10 10 9 9 9 9 9 9 9 9 9 8 8 8 8 8 10 17 18 17 16 16 16 10 7 8 8 9 10 9 9 8 9 9 10 9 9 8 8 7 7 7
6 6 6 5 5 6 6 6 7 7 7 7 7 7 8 8 8 8 8 9 9 9 9 9 9 9 9 9 9 9 9 9 9 9 9 9 9 10 10 10 10 10 10 10 9 9 9 9 9 9 9 9 9 9 9 9 8 10 15 21 20 18 16 13 11 13 14 9 8 8 9 10 10 10 9 8 8 8 9 8 8 7 6 6 6
Wind_Direction
10 357 359 349 358 351 350 354 355 350 352 354 3 353 354 351 350 346 341 344 346 343 341 337 332 324 318 317 316 313 307 297 286 273 264 259 252 242 247 243 247 251 246 252 244 234 236 241 243 240 229 231 239 238 237 238 241 240 235 229 229 210 188 199 211 229 280 153 163 176 177 160 174 180 175 173 174 182 177 180 178 175 174 180 185
7 342 345 346 345 332 315 316 331 336 349 339 2 343 348 341 339 345 344 335 341 333 330 329 332 334 334 326 318 311 310 308 303 299 283 273 263 248 246 244 248 249 241 248 246 244 241 241 241 237 226 235 238 237 231 231 226 233 237 226 232 227 207 197 220 198 210 162 123 125 162 176 174 182 179 177 186 178 179 177 179 177 181 180 185
350 330 326 329 324 318 332 324 336 327 350 323 345 326 324 319 319 329 311 311 318 322 324 326 327 330 328 327 326 324 316 308 300 290 277 264 260 257 248 244 244 246 246 245 245 243 247 246 246 232 224 235 239 238 234 233 228 229 232 224 232 230 218 211 205 217 198 207 175 162 175 181 184 185 188 187 180 181 177 181 178 183 186 185 186
347 339 329 324 317 323 318 312 335 319 332 300 331 305 308 300 304 324 315 319 320 313 312 312 321 326 327 324 324 320 319 316 313 305 294 283 272 265 259 253 249 248 247 248 245 242 244 250 247 234 230 238 238 233 231 230 230 232 236 230 229 230 217 215 217 219 189 183 202 181 183 174 197 173 177 154 166 183 193 175 159 177 186 190 188
360 343 344 343 333 332 318 321 332 320 316 302 310 314 313 303 291 296 302 305 310 319 320 321 319 318 315 313 312 312 310 312 312 309 302 295 286 278 270 262 256 251 248 247 245 243 245 245 248 232 231 241 243 236 227 227 229 231 234 231 232 231 225 217 223 211 184 198 186 199 178 190 177 169 172 165 169 178 183 190 188 182 186 196 190
352 356 343 352 338 341 338 343 338 333 323 318 322 329 324 319 315 320 321 318 318 316 308 311 313 311 306 299 296 296 296 296 295 293 294 293 288 280 273 267 264 262 259 254 250 246 249 248 245 237 239 242 247 240 231 231 229 229 231 232 228 225 225 227 221 218 213 205 174 169 192 179 172 186 185 175 169 172 184 193 181 187 179 191 203
349 356 336 339 334 328 334 333 328 325 318 310 318 327 321 318 319 312 305 304 309 313 311 305 304 301 299 301 300 294 289 285 282 278 277 276 275 274 270 268 268 268 263 259 256 255 253 253 248 240 242 244 248 244 237 236 230 232 228 226 218 218 224 227 221 218 221 205 194 189 181 196 183 181 187 184 183 182 178 172 195 199 194 191 194
351 348 344 339 335 326 326 327 327 322 319 316 314 309 303 307 307 303 304 304 298 297 298 297 295 297 291 291 288 287 286 286 280 276 272 271 271 270 270 270 272 270 267 262 260 258 257 256 253 247 244 247 246 246 237 241 237 239 233 225 218 217 221 224 222 221 222 219 194 190 190 179 192 155 138 162 177 199 196 184 191 190 195 196 200
332 331 331 325 314 309 308 306 300 304 306 311 311 310 307 302 299 296 292 292 292 290 288 288 294 296 294 291 290 284 281 278 276 279 281 278 271 271 273 272 271 273 272 268 263 261 261 258 257 253 250 250 247 245 241 237 238 243 237 222 217 218 221 218 215 217 224 221 216 183 180 189 192 170 174 187 192 195 180 185 208 197 185 187 204
320 321 314 302 298 299 298 298 298 296 299 298 294 295 299 302 302 300 295 286 279 282 288 288 285 289 294 292 289 290 283 276 274 274 273 272 276 274 272 270 269 270 271 272 268 261 259 261 258 256 254 253 251 249 247 245 242 239 239 222 219 221 219 219 216 215 216 218 221 192 191 201 194 192 190 197 190 159 174 189 193 183 169 205 206
287 283 283 279 284 287 292 290 292 293 289 291 290 291 292 292 294 296 298 297 293 288 281 281 284 285 286 288 288 286 281 279 273 270 273 276 275 273 272 273 267 264 265 266 269 267 262 258 257 257 256 256 255 252 249 247 246 246 245 236 226 221 221 221 221 217 215 217 219 208 207 209 204 196 198 186 183 186 186 183 185 172 187 182 202
295 286 280 284 282 285 283 284 285 283 285 284 285 285 284 284 285 288 293 297 298 297 290 283 281 281 281 281 281 280 280 270 274 278 280 282 279 272 270 270 270 266 260 260 260 263 262 260 255 252 249 248 250 248 246 245 246 247 246 243 240 235 227 221 222 221 216 219 217 216 211 218 207 192 193 182 188 189 189 188 189 188 189 199 202
310 303 297 293 290 287 285 283 282 281 280 280 281 283 281 278 280 284 285 289 299 298 296 296 292 288 281 279 278 276 275 274 276 278 278 276 276 274 269 269 266 265 262 260 259 258 257 256 258 251 247 244 245 246 247 246 243 244 246 245 242 240 238 234 228 225 219 224 224 223 217 216 209 203 196 186 173 185 186 195 199 199 198 202 205
313 303 299 295 293 292 290 289 286 284 284 283 281 279 278 276 277 278 282 290 289 290 292 292 292 292 291 288 286 283 277 272 275 275 276 276 274 270 265 265 263 260 261 259 260 259 253 253 254 255 250 245 239 241 241 241 242 241 240 239 241 243 241 238 236 232 225 224 224 230 228 215 213 201 189 173 180 190 190 198 195 196 200 210 207
302 301 298 297 297 296 294 293 294 294 294 292 289 284 282 283 280 279 282 283 287 287 289 290 288 289 290 290 290 288 284 281 280 277 274 272 271 272 266 263 260 259 258 258 256 256 256 252 250 253 253 245 240 237 238 238 237 236 235 235 235 238 240 239 236 234 230 229 231 234 234 222 221 203 176 186 194 194 191 192 191 196 196 107 46
298 298 297 299 302 304 305 304 302 302 301 298 295 293 295 293 291 290 286 284 281 283 282 279 280 281 283 285 287 285 285 286 286 284 282 279 276 271 265 260 259 258 257 256 254 253 255 252 251 251 249 247 242 240 238 238 236 236 236 237 238 237 238 236 238 234 232 231 234 236 236 228 220 208 182 188 193 189 172 83 77 103 130 169 180
302 301 300 303 307 311 314 313 310 306 303 300 300 301 302 300 298 299 293 289 286 283 280 279 278 277 279 280 280 280 282 284 285 284 283 282 281 279 273 269 263 259 256 255 255 253 251 248 247 249 249 247 240 236 237 238 239 238 239 239 239 238 242 237 236 236 236 238 239 239 237 232 225 204 183 187 183 174 162 170 193 180 173 183 189
306 306 305 312 313 316 316 313 308 306 308 306 306 306 306 304 302 304 298 295 289 285 283 280 274 272 273 274 274 277 279 281 282 283 283 281 279 275 271 268 264 262 261 256 252 251 248 247 245 245 246 246 238 235 233 233 236 238 239 239 241 240 242 238 228 230 234 239 241 241 239 234 225 216 198 189 184 173 179 197 191 168 188 194 190
314 314 314 315 317 320 318 314 309 310 313 316 318 314 310 306 302 300 294 290 287 288 285 281 278 274 270 271 274 274 275 277 279 281 281 281 280 275 273 272 272 268 266 264 259 251 250 247 244 243 242 243 240 238 235 229 231 233 236 235 239 241 241 231 215 217 220 226 236 239 242 235 226 220 214 203 192 188 194 197 169 180 193 198 176
316 314 317 321 322 319 315 313 316 321 318 313 310 304 303 302 299 298 295 292 289 286 284 281 280 279 277 274 273 270 273 273 275 277 279 279 278 277 274 272 266 264 262 261 263 257 249 247 242 240 242 241 240 238 236 229 227 231 232 232 235 242 240 224 197 214 218 216 223 223 227 223 217 217 216 209 204 199 202 198 187 189 195 189 183
317 319 319 318 318 317 315 317 316 312 308 304 302 299 300 299 300 298 296 294 292 289 289 289 285 283 280 276 274 272 270 273 275 276 277 277 276 276 272 266 265 264 265 262 257 258 254 247 247 235 238 241 242 241 236 232 229 228 228 229 230 238 235 179 205 214 215 216 218 220 219 217 215 214 216 216 211 206 205 203 196 198 193 189 189
320 318 316 314 311 308 307 306 303 299 299 298 296 293 295 295 293 295 293 293 293 291 290 289 286 283 282 280 277 277 275 275 277 278 277 277 276 274 271 267 264 264 266 263 259 255 250 250 249 238 234 237 241 240 238 236 231 228 227 229 232 233 230 205 205 208 212 216 217 217 215 212 211 214 214 214 213 206 206 208 203 202 205 198 191
316 314 311 308 306 304 302 301 299 297 293 292 291 292 294 292 289 288 288 288 288 287 286 285 282 283 282 280 279 279 280 280 279 280 280 281 279 278 274 272 270 267 261 260 257 254 252 250 246 242 237 234 236 239 239 237 235 233 233 232 232 228 223 219 204 208 211 216 214 216 214 213 211 212 211 212 209 203 205 206 205 199 194 181 185
313 310 308 305 305 304 302 301 297 294 293 293 289 289 289 288 286 285 286 285 286 286 284 285 284 284 285 284 280 276 278 279 283 285 287 288 288 285 283 279 275 270 263 257 257 255 254 251 245 238 237 235 237 239 239 236 232 234 235 233 231 228 223 221 213 211 209 212 215 218 218 213 211 209 210 207 203 188 183 180 172 172 135 112 106
312 309 307 306 305 304 301 299 297 295 293 291 291 290 287 287 287 285 283 284 281 281 282 280 279 282 283 284 284 280 273 274 277 285 289 291 292 291 290 287 283 278 272 265 257 255 251 249 245 243 239 237 237 239 241 239 235 234 231 228 229 229 224 220 217 208 212 211 215 219 219 214 210 210 198 179 156 144 140 146 132 102 84 83 78
309 306 305 305 304 303 302 301 297 297 294 289 284 283 285 288 286 287 283 280 279 281 283 283 281 282 281 284 284 287 291 289 290 293 298 296 295 296 294 291 285 280 274 266 264 261 257 253 251 248 242 236 236 236 236 230 233 234 233 230 226 225 220 221 215 212 214 214 215 217 217 209 202 186 165 152 154 164 158 151 142 134 132 123 104
305 305 305 305 304 303 304 305 302 298 293 291 285 285 285 283 284 284 282 282 281 280 281 280 281 280 278 278 278 280 279 279 281 279 277 281 282 286 287 286 285 287 287 278 267 261 260 258 251 245 247 243 237 231 231 231 231 231 231 226 223 219 219 216 212 212 214 214 213 212 210 193 161 146 164 166 170 168 163 162 161 160 147 147 128
305 305 304 305 304 305 302 297 297 297 295 294 294 291 285 282 282 280 281 281 282 280 277 277 277 275 276 275 275 273 270 269 267 269 270 271 271 272 278 286 290 295 293 290 282 266 258 258 260 259 252 244 241 238 234 228 223 221 222 220 220 218 219 218 216 214 214 211 206 196 184 171 176 175 168 170 170 168 166 166 163 159 156 143 138
300 299 302 304 300 298 295 296 295 296 295 293 285 283 288 286 280 274 265 260 262 268 271 271 267 266 264 269 274 273 270 267 263 260 263 266 271 273 271 276 283 280 281 287 292 292 279 263 253 253 245 242 239 235 230 225 220 217 217 217 217 216 215 210 213 211 209 201 196 189 186 173 175 170 170 169 171 164 164 160 161 154 159 166 165
301 302 303 300 297 297 297 295 296 295 294 293 293 284 273 285 288 288 288 284 285 286 287 287 286 286 285 278 271 280 282 280 283 282 284 287 286 286 284 282 280 281 282 284 288 291 283 267 247 239 238 233 231 229 227 222 218 213 213 217 217 213 212 211 210 211 199 198 193 186 176 174 172 171 172 172 160 158 163 163 161 158 161 169 166
303 301 301 297 297 298 298 298 295 293 292 293 291 293 294 283 284 288 287 290 291 291 292 291 292 293 293 294 294 293 294 296 298 298 297 296 295 292 289 286 285 283 284 286 287 282 285 277 257 236 232 232 229 230 228 225 218 215 213 211 214 214 214 210 208 201 196 191 191 183 174 172 172 171 171 167 161 154 153 153 158 165 170 168 165
301 299 298 296 298 297 295 295 295 294 294 293 292 294 293 295 290 283 289 293 294 295 295 294 293 294 294 295 296 296 296 297 298 297 296 294 292 291 288 286 283 283 281 280 279 276 276 281 277 254 233 226 228 228 230 228 224 217 213 210 211 208 208 209 201 195 191 188 184 178 173 172 169 166 165 159 155 158 157 160 165 170 168 173 172
295 294 294 295 295 295 297 296 294 294 295 295 295 293 294 297 297 301 291 292 295 297 296 295 296 296 296 297 297 296 297 298 298 298 296 293 291 288 286 284 283 280 280 278 272 272 273 279 283 277 251 223 220 224 228 225 221 218 210 213 212 210 208 204 181 186 186 184 174 174 169 165 163 160 161 159 162 165 167 167 170 171 171 169 173
290 289 292 292 294 294 294 293 293 292 290 290 290 292 291 292 294 295 302 304 299 292 292 295 297 298 298 298 298 298 297 296 297 297 296 295 294 292 289 285 281 278 272 269 270 266 266 270 274 279 274 244 217 209 213 220 219 216 214 215 215 207 197 168 173 182 183 173 173 170 166 164 163 162 164 167 169 166 167 172 170 169 176 175 168
292 289 288 289 287 290 291 291 292 290 292 291 291 291 290 291 291 294 296 299 301 303 306 301 299 300 299 298 298 299 300 301 303 301 300 299 298 297 297 292 282 270 262 252 258 264 263 261 263 270 278 266 229 198 199 207 217 219 217 213 204 184 165 173 180 179 171 168 166 169 170 168 170 171 168 167 166 171 173 171 174 174 169 166 165
293 289 291 290 290 289 291 292 291 292 292 290 288 286 288 288 291 290 290 290 292 295 295 295 295 298 301 301 302 302 302 302 301 301 300 299 298 300 299 288 277 259 247 244 240 242 245 252 257 260 263 260 233 199 192 202 212 216 216 206 191 176 172 171 170 168 170 169 172 171 172 175 174 171 169 169 170 170 169 169 169 170 168 168 167
295 293 292 293 293 293 294 291 289 290 291 291 291 292 290 290 288 288 289 290 292 291 293 296 302 300 304 302 301 306 306 305 304 302 301 300 299 299 285 285 281 273 249 242 237 235 239 240 244 251 251 242 208 192 193 208 213 211 206 196 182 175 175 172 169 167 168 174 175 174 175 174 168 167 163 163 164 162 164 164 164 166 165 166 161
290 289 287 290 294 298 298 296 296 299 299 295 294 293 293 293 292 291 292 293 293 295 298 299 300 300 302 301 308 306 307 308 307 303 298 296 297 293 289 291 298 304 293 256 245 233 228 230 233 236 229 213 206 195 202 207 206 198 182 178 178 181 173 170 173 171 173 169 168 168 164 161 160 160 160 162 163 161 162 162 161 160 159 162 159
295 295 297 301 304 302 297 300 300 302 299 299 298 298 298 298 297 296 295 294 296 295 295 297 297 299 299 301 304 305 308 307 307 305 305 303 297 293 299 301 306 317 319 313 296 254 225 229 225 218 213 210 200 198 199 199 185 181 170 162 165 163 168 163 162 159 157 160 159 159 158 159 158 163 163 160 159 160 160 159 162 160 157 160 165
301 303 301 308 309 306 303 300 302 300 300 303 304 305 303 304 304 304 302 302 301 301 301 301 302 300 304 305 299 301 303 305 305 304 303 306 310 311 310 319 329 324 318 317 319 316 281 229 217 202 203 194 182 181 182 173 178 171 166 167 164 169 167 161 157 158 159 155 155 155 155 156 155 153 154 157 155 155 156 158 159 159 157 156 154
297 297 300 306 307 308 303 301 301 302 306 307 306 308 309 309 310 310 311 310 310 310 309 307 307 306 305 316 325 334 336 330 327 330 331 331 330 334 336 334 333 330 328 334 332 331 307 220 176 177 141 153 173 169 166 165 159 165 168 163 154 150 146 145 146 144 142 144 148 149 150 148 149 151 152 151 154 150 147 148 146 145 143 140 144
297 299 302 302 307 305 303 305 306 309 310 310 312 313 312 313 314 315 316 317 318 317 316 319 318 320 326 332 338 340 340 332 333 331 335 337 335 334 335 333 333 329 330 333 333 336 344 346 16 41 79 119 130 144 137 145 154 154 150 146 144 138 138 144 143 143 144 145 145 148 149 149 149 146 145 146 142 142 145 148 148 144 141 143 143
296 296 296 300 303 303 305 306 310 312 317 318 316 318 317 317 317 318 316 318 319 321 325 324 326 328 329 337 341 342 339 337 335 336 336 338 335 332 330 329 330 331 335 335 334 343 354 11 19 21 26 23 22 31 94 141 148 136 131 137 138 136 135 133 135 136 134 135 137 139 139 144 143 139 141 140 140 141 142 143 144 144 144 141 144
300 297 297 298 299 296 298 304 312 316 315 318 320 321 323 322 319 319 321 322 324 329 326 330 331 331 331 336 340 341 340 339 338 341 337 337 336 334 332 333 335 332 333 338 346 353 5 15 25 27 29 29 28 38 43 45 68 124 137 134 134 135 138 141 147 149 147 142 140 140 140 139 138 138 137 141 142 141 143 142 142 141 139 140 141
296 297 302 304 303 304 308 313 315 316 316 319 321 322 326 328 324 326 327 328 333 332 332 332 333 331 333 334 338 340 338 338 341 342 342 340 338 338 337 337 341 336 333 342 355 0 10 21 30 36 37 34 36 41 45 46 47 53 52 107 131 140 145 143 138 133 135 137 139 139 139 140 141 141 140 142 144 142 141 142 140 136 134 136 140
296 298 302 304 308 311 316 319 323 320 320 323 323 327 329 328 330 332 335 335 335 334 334 334 334 337 337 336 339 343 341 345 346 345 344 346 344 343 343 346 347 350 352 344 348 3 11 17 25 31 37 37 37 41 45 49 53 56 62 59 76 87 100 109 119 127 138 140 140 141 137 135 135 140 141 140 138 135 132 131 131 134 137 136 137
299 296 301 302 308 312 317 322 323 325 328 327 328 329 330 332 333 334 337 340 339 337 338 338 341 344 345 345 345 346 348 351 347 348 347 347 348 347 350 351 348 348 349 348 354 2 11 15 16 19 26 36 42 43 44 44 46 49 53 64 75 87 90 98 107 120 126 131 134 135 138 137 135 133 131 129 127 127 128 130 134 135 133 137 138
299 303 302 304 308 317 323 327 325 328 327 328 330 330 331 335 334 337 340 340 343 344 345 345 349 349 349 350 350 349 351 351 351 349 352 355 358 357 359 1 359 359 358 9 15 15 16 15 15 17 16 23 34 37 39 45 45 51 50 58 64 85 95 96 97 99 104 115 120 127 129 129 128 127 129 131 129 130 128 128 127 124 128 130 136
304 308 310 315 322 329 330 329 329 330 328 330 330 333 336 337 337 337 338 341 341 344 347 349 350 350 354 353 354 354 354 354 359 1 1 1 0 4 6 7 9 9 13 18 19 21 22 22 22 25 31 34 35 39 42 43 52 50 64 67 97 102 101 104 102 96 98 98 101 102 104 108 114 117 118 117 120 119 118 119 121 122 122 124 127
304 308 312 318 326 329 328 325 322 323 328 328 330 332 333 336 338 342 341 341 344 348 353 351 352 352 352 354 358 360 359 2 3 4 5 6 8 9 13 16 19 21 22 25 26 25 25 25 27 30 33 36 39 41 44 43 45 55 55 82 95 98 98 99 103 106 101 98 100 104 106 107 104 105 103 107 111 116 116 120 121 123 125 128 129
312 316 318 322 326 328 330 331 335 337 333 332 335 334 334 336 337 338 341 344 345 349 349 352 351 354 357 356 358 359 1 1 3 5 6 10 9 13 17 21 22 21 23 22 23 24 25 25 28 30 36 42 46 48 48 52 54 66 75 77 81 86 85 88 88 86 81 86 95 99 105 108 111 109 109 109 109 113 118 119 121 125 127 130 130